Погода в Байрон-Бэе

Австралия     28°38′35″S   153°36′43″E
темп.,
°C
ветер,
м/с
пор.,
м/с
влажн.,
%
обл.,
%
осадки,
мм/ч
давл.,
гПа
погр.,
м
21 апреля, ср
ср2101:00+13сз11720 0.0 101315
04:00+13з11810 0.0 101314
07:00+14зюз12790 0.0 101452
10:00+24з26440 0.0 1013902
13:00+25зюз39330 0.0 10111953
16:00+23зюз25480 0.0 1010205
19:00+16зсз26660 0.0 1013109
22:00+13юз23720 0.0 101564
22 апреля, чт
чт2201:00+11з22800 0.0 101543
04:00+10з12864 0.0 101438
07:00+11з13810 0.0 101570
10:00+20з1347100 0.0 1015758
13:00+22з2536100 0.0 10121073
16:00+18зсз31045100 0.0 1011424
19:00+16зсз4124199 0.0 1013421
22:00+14з413475 0.0 1015398
23 апреля, пт
пт2301:00+10зюз28610 0.0 1016159
04:00+8зюз25690 0.0 101680
07:00+9зюз26670 0.0 1018121
10:00+17юз24430 0.0 1019497
13:00+20ю21440 0.0 10171212
16:00+18ююв23580 0.0 1017449
19:00+12с00740 0.0 101911
22:00+11з11810 0.0 102112
24 апреля, сб
сб2401:00+9зюз21900 0.0 102137
04:00+9з22940 0.0 102151
07:00+10зюз14880 0.0 102287
10:00+19юз22550 0.0 1023610
13:00+21ююв22470 0.0 10211414
16:00+19юв24650 0.0 1020574
19:00+14юз01890 0.0 102211
22:00+13зюз11938 0.0 102426
25 апреля, вс
вс2501:00+11з249947 0.0 102388
04:00+10зюз259928 0.0 102293
07:00+11зюз2595100 0.0 1024130
10:00+18юз2467100 0.0 1024517
13:00+22ю225637 0.0 10211468
16:00+20юв23713 0.1 1021618
19:00+15ююв11900 0.0 102215
22:00+14зюз119136 0.0 102314